Regional Weather Roundup
Issued by NWS

Home | Current Version | Previous Version | Graphics & Text | Print | Product List | Glossary On
Versions: 1 2 3 4 5 6 7 8 9 10 11 12 13 14 15 16 17 18 19 20 21 22 23 24 25 26 27 28 29 30 31 32 33 34 35 36 37 38 39 40 41 42 43 44 45 46 47 48 49 50
000
ASUS43 KMKX 221921
RWRWI

WISCONSIN REGIONAL WEATHER ROUNDUP
NATIONAL WEATHER SERVICE MILWAUKEE/SULLIVAN WI
200 PM CDT TUE JUL 22 2014

NOTE: "FAIR" INDICATES FEW OR NO CLOUDS BELOW 12,000 FEET WITH NO
SIGNIFICANT WEATHER AND/OR OBSTRUCTIONS TO VISIBILITY.

WIZ001-002-006>008-014>016-023>028-222000-
NORTHWEST WISCONSIN

CITY           SKY/WX    TMP DP  RH WIND       PRES   REMARKS
SUPERIOR ARPT  PTSUNNY   79  62  56 N15G23    29.96R HX  80
ASHLAND        CLOUDY    78  66  66 NW12      29.96R HX  80
HAYWARD        PTSUNNY   75  63  66 VRB5      29.98S
SIREN          PTSUNNY   78  61  57 NW12      30.00S
RICE LAKE      PTSUNNY   77  61  58 NW12G17   30.01R
LADYSMITH      CLOUDY    77  64  65 NW15      29.99R
EAU CLAIRE     PTSUNNY   84  65  52 NW12      29.96R HX  86
MENOMONIE      MOCLDY    82  65  56 W12G17    29.99R HX  84
NEW RICHMOND   MOSUNNY   78  63  61 NW9       30.02R
OSCEOLA        PTSUNNY   77  65  65 NW9       30.04R
$$

WIZ003>005-009-010-017-018-222000-
NORTH CENTRAL WISCONSIN

CITY           SKY/WX    TMP DP  RH WIND       PRES   REMARKS
WOODRUFF       CLOUDY    77  66  68 NW9G18    29.96R
RHINELANDER    PTSUNNY   79  65  62 W15G23    29.95R HX  81
EAGLE RIVER    CLOUDY    76  61  59 NW14G21   29.93R
LAND O LAKES   CLOUDY    75  62  64 NW14G20   29.94R
PHILLIPS       CLOUDY    75  65  69 NW8       29.96R
TOMAHAWK       PTSUNNY   79  65  60 W13       29.95R HX  81
MEDFORD        MOSUNNY   79  66  64 NW12G17   29.95S HX  81
MERRILL        MOSUNNY   83  67  58 W9        29.93R HX  85
$$

WIZ029-030-035-036-043>047-222000-
CENTRAL WISCONSIN

CITY           SKY/WX    TMP DP  RH WIND       PRES   REMARKS
WAUSAU         MOSUNNY   86  65  49 NW16      29.91R HX  88
MOSINEE        MOSUNNY   84  64  51 W15G22    29.94R HX  86
MARSHFIELD     MOSUNNY   84  66  54 NW17G26   29.95R HX  86
STEVENS POINT  MOSUNNY   85  66  51 W10G17    29.91R HX  87
WAUPACA        MOSUNNY   94  69  43 W13G18    29.88S HX  99
WAUTOMA        MOSUNNY   93  73  52 W10       29.89S HX 101
WISC RAPIDS    MOSUNNY   88  68  51 NW17      29.93R HX  91
CAMP DOUGLAS   PTSUNNY   88  75  66 W10       29.92R HX  97
$$

WIZ011>013-019>022-031-037>040-048>050-222000-
NORTHEAST WISCONSIN

CITY           SKY/WX    TMP DP  RH WIND       PRES   REMARKS
ANTIGO         MOSUNNY   81  66  61 NW12      29.93R HX  83
STURGEON BAY   SUNNY     88  72  58 SW17G24   29.85R HX  94
GREEN BAY      MOSUNNY   89  75  63 W8        29.86R HX  99
MANITOWOC      PTSUNNY   88  74  63 W12       29.86R HX  96
APPLETON       PTSUNNY   84  72  65 W13       29.89R HX  89
CLINTONVILLE   PTSUNNY   90  68  48 W14       29.86R HX  93
OSHKOSH        MOSUNNY   88  75  65 W12G18    29.88R HX  97
$$

WIZ032>034-041-042-053>061-222000-
SOUTHWEST WISCONSIN

CITY           SKY/WX    TMP DP  RH WIND       PRES   REMARKS
LA CROSSE      SUNNY     90  69  50 NW16      29.93R HX  94
SPARTA         SUNNY     88  67  50 NW15G21   29.95R HX  90
VIROQUA        MOCLDY    88  73  62 W7        29.96R HX  95
BOSCOBEL       SUNNY     91  75  59 W8        29.92S HX 101
PRAIRIE DU CHI SUNNY     90  72  55 W8        29.92S HX  97
PLATTEVILLE    PTSUNNY   87  77  72 W10       29.97R HX  98
$$

WIZ056-057-062-063-064-067-068-222000-
SOUTH CENTRAL WISCONSIN

CITY           SKY/WX    TMP DP  RH WIND       PRES   REMARKS
BARABOO/DELLS  PTSUNNY   89  72  55 W9G16     29.92S HX  96
LONE ROCK      SUNNY     92  76  59 W7        29.91R HX 104
WATERTOWN      SUNNY     87  76  69 SW12      29.89F HX  96
MADISON        MOSUNNY   89  75  63 VRB7      29.90F HX  99
MIDDLETON      FAIR      91  73  55 W12       29.92R HX 100
MONROE         CLOUDY    86  73  66 SW15      29.94S HX  93
JANESVILLE     PTSUNNY   88  72  58 S14       29.91F HX  94
$$

WIZ051-052-058>065-066-070>072-222000-
SOUTHEAST WISCONSIN

CITY           SKY/WX    TMP DP  RH WIND       PRES   REMARKS
MILWAUKEE      MOSUNNY   89  73  59 SW17G24   29.89F HX  97
WAUKESHA       PTSUNNY   84  73  70 SW17G25   29.92F HX  91
MILWAUKEE/TIMM MOSUNNY   88  72  58 SW13G18   29.89F HX  94
RACINE         PTSUNNY   87  73  62 SW14G23   29.93F HX  94
BURLINGTON     MOSUNNY   84  73  70 SW13G21   29.92F HX  90
KENOSHA        PTSUNNY   88  74  63 SW16      29.94F HX  96
FOND DU LAC    PTSUNNY   87  74  64 W13       29.89R HX  95
SHEBOYGAN      SUNNY     87  74  64 SW14      29.86F HX  95
WEST BEND      MOSUNNY   86  72  62 SW10      29.88F HX  92
JUNEAU         PTSUNNY   85  59  40 SW13      29.91S HX  85
$$

LSZ147-162-222000-
LAKE SUPERIOR

STATION/POSITION TIME  TEMP    WIND        PRES    WAVE
                       AIR SEA DIR/SP/G            HT/PER
                 (UTC) (F)     (DEG/KT/KT) (MB)    (FT/S)
W MID LAKE BUOY  1850   48 40  270/ 12/ 14 1011.5R   3/ 5
PORT WING        1840   69     270/  5/  7 1014.2R
SAXON HARBOR     1800          290/  8/ 14 1013.2R
$$

LMZ867-665-643>646-222000-
LAKE MICHIGAN

STATION/POSITION TIME  TEMP    WIND        PRES    WAVE
                       AIR SEA DIR/SP/G            HT/PER
                 (UTC) (F)     (DEG/KT/KT) (MB)    (FT/S)
N MID LAKE BUOY  1850   62 57  210/ 23/ 27 1008.6S   6/ 6
NORTHPORT PIER   1800   71     140/ 10/ 12 1008.8F
KEWAUNEE LAKESHO 1900   66     170/  5/ 10 1011.6R
SHEBOYGAN LAKESH 1900   72     170/ 23/ 24 1010.7F
PORT WASHINGTON  1800          250/  9/ 18 1012.9F
ATWATER BUOY     1900   71     180/ 10     1012.8F
MILWAUKEE LAKESH 1900   83     220/  9/ 13   N/A
S MID LAKE BUOY  1850   71 68  170/ 16/ 17 1013.7F   2/ 4
KENOSHA   LAKESH 1900   87     210/ 12/ 20   N/A
$$

TC  - TEMPERATURE IN CELSIUS
VSB - VISIBILITY IN STATUTE MILES
WCI - WIND CHILL INDEX
HX  - HEAT INDEX



USA.gov is the U.S. government's official web portal to all federal, state and local government web resources and services.